Location: Bothwell
(41.7170°N, 112.2589°W)
Time: 17:44:06
(UTC+00:00)

Vanguard 2 - Pass Details

Date: 16 May 2026
Orbit: 553 x 2894 km, 32.9° (Epoch: 9 June)

Event Time Altitude Azimuth Distance (km) Brightness Sun altitude
Rises 08:15:54 0° 226° (SW) 6,145 - -28.0°
Reaches altitude 10° 08:19:56 10° 220° (SW) 5,351 - -27.9°
Exits shadow 08:30:03 38° 190° (S) 3,837 10.4 -27.3°
Maximum altitude 08:35:21 45° 155° (SSE) 3,574 10.5 -27.0°
Drops below altitude 10° 08:50:33 10° 90° (E) 5,301 12.0 -26.0°
Sets 08:54:29 0° 84° (E) 6,089 12.5 -25.7°
